SCP
0 0 0 0 0 0 0 1 1 1 1 1 2 2 2 1 1 1 1 1 1 1 1 1 2 2 2 1 1 1 1 1 1 1 1 1 1 1 1 1 2 2 1
0 0 0 0 0 0 0 0 1 1 1 1 1 1 1 1 1 1 1 1 1 1 1 1 2 2 2 2 1 1 1 1 1 1 1 1 1 1 1 1 2 1 1
0 0 0 0 0 0 0 0 0 0 1 1 1 1 1 1 1 1 1 1 1 1 1 1 1 2 2 3 2 2 2 2 1 1 1 1 1 1 1 1 1 1 1
0 0 0 0 0 0 0 0 0 0 0 1 1 1 1 1 1 1 1 1 1 1 1 1 1 2 2 3 3 3 3 2 2 1 1 1 1 1 1 1 1 1 1
0 0 0 0 0 0 0 0 0 0 0 0 0 1 1 1 1 1 1 1 1 1 1 1 1 2 2 3 3 4 3 3 2 2 2 2 2 1 1 2 1 1 1
0 0 0 0 0 0 0 0 0 0 0 0 0 0 0 0 0 1 1 1 1 1 1 1 1 1 2 2 3 4 4 3 3 2 2 3 2 2 2 2 2 1 1
0 0 0 0 0 0 0 0 0 0 0 0 0 0 0 0 0 0 1 1 1 1 1 1 1 1 1 2 2 3 4 4 3 3 3 3 3 3 2 2 2 2 2
0 0 0 0 0 0 0 0 0 0 0 0 0 0 0 0 0 0 0 1 1 1 1 1 1 1 2 2 2 3 3 4 4 4 3 3 3 3 3 3 2 2 2
0 0 0 0 0 0 0 0 0 0 0 0 0 0 0 0 0 0 0 0 1 1 1 1 1 2 2 2 2 2 3 4 4 4 3 3 3 3 3 3 3 2 2
0 0 0 0 0 0 0 0 0 0 0 0 0 0 0 0 0 0 0 0 0 1 1 1 1 2 2 2 2 2 2 3 3 4 4 4 3 3 3 3 3 2 2
0 0 0 0 0 0 0 0 0 0 0 0 0 0 0 0 0 0 0 0 0 0 1 1 1 2 2 2 2 2 2 2 3 3 3 4 4 3 3 3 3 2 2
0 0 0 0 0 0 0 0 0 0 0 0 0 0 0 0 0 0 0 0 0 0 0 1 1 2 2 2 2 1 1 1 2 2 3 3 3 3 3 3 3 3 3
0 0 0 0 0 0 0 0 0 0 0 0 0 0 0 0 0 0 0 0 0 0 0 1 1 1 1 1 1 1 0 1 1 2 2 3 3 3 3 3 3 3 3
0 0 0 0 0 0 0 0 0 0 0 0 0 0 0 0 0 0 0 0 0 0 0 0 1 1 1 1 1 1 1 0 1 1 1 2 2 2 2 3 3 3 3
0 0 0 0 0 0 0 0 0 0 0 0 0 0 0 0 0 0 0 0 0 0 0 0 0 1 1 1 1 1 1 1 0 1 1 1 1 1 2 2 2 2 2
0 0 0 0 0 0 0 0 0 0 0 0 0 0 0 0 0 0 0 0 0 0 0 0 0 0 1 1 1 1 1 1 1 0 0 1 1 1 1 2 1 1 1
0 0 0 0 0 0 0 0 0 0 0 0 0 0 0 0 0 0 0 0 0 0 0 0 0 0 1 1 1 1 1 1 1 0 0 0 1 1 1 1 1 0 0
0 0 0 0 0 0 0 0 0 0 0 0 0 0 0 0 0 0 0 0 0 0 0 0 0 0 1 1 1 1 1 1 1 0 0 0 0 1 1 1 0 0 0
0 0 0 0 0 0 0 0 0 0 0 0 0 0 0 0 0 0 0 0 0 0 0 0 0 1 1 1 2 1 1 1 1 0 0 0 0 0 0 0 0 0 0
0 0 0 0 0 0 0 0 0 0 0 0 0 0 0 0 0 0 0 0 0 0 0 0 1 1 1 1 1 1 1 1 1 0 0 0 0 0 0 0 0 0 0
0 0 0 0 0 0 0 0 0 0 0 0 0 0 0 0 0 0 0 0 0 0 0 0 1 1 1 1 1 1 1 1 1 1 0 0 0 0 0 0 0 0 0
0 0 0 0 0 0 0 0 0 0 0 0 0 0 0 0 0 0 0 0 0 0 0 0 0 0 1 1 1 1 1 1 1 0 0 0 0 0 0 0 0 0 0
0 0 0 0 0 0 0 0 0 0 0 0 0 0 0 0 0 0 0 0 0 0 0 0 0 0 0 0 1 1 1 1 0 0 0 0 0 0 0 0 0 0 0
0 0 0 0 0 0 0 0 0 0 0 0 0 0 0 0 0 0 0 0 0 0 0 0 0 0 0 0 0 0 0 0 0 0 0 0 0 0 0 0 0 0 0
0 0 0 0 0 0 0 0 0 0 0 0 0 0 0 0 0 0 0 0 0 0 0 0 0 0 0 0 0 0 0 0 0 0 0 0 0 0 0 0 0 0 0
0 0 0 0 0 0 0 0 0 0 0 0 0 0 0 0 0 0 0 0 0 0 0 0 0 0 0 0 0 0 0 0 0 0 0 0 0 0 0 0 0 0 0
Wind_Speed
12 13 11 11 12 11 11 11 9 10 10 9 9 11 11 11 10 9 5 8 11 12 14 14 15 15 16 19 19 18 17 16 15 14 12 11 10 9 9 8 8 8 8
13 13 12 12 12 12 13 12 13 11 8 7 9 10 11 11 10 10 9 8 11 13 14 15 16 16 16 18 20 19 18 18 17 16 14 13 12 11 11 10 9 9 8
15 14 12 11 11 13 15 13 14 11 9 8 9 10 10 11 11 11 11 9 8 12 14 15 16 17 17 17 19 20 19 19 18 16 15 14 13 13 12 11 10 10 9
17 14 12 11 13 12 11 11 12 11 11 10 9 9 9 9 12 12 11 10 9 8 11 15 16 17 18 19 19 20 20 20 19 18 17 15 14 14 14 13 12 11 10
17 15 12 12 14 11 10 11 11 12 12 12 11 10 10 9 10 11 12 12 11 10 10 10 15 16 17 19 20 21 21 21 20 20 18 17 16 16 15 15 14 13 12
16 14 12 14 14 11 11 11 13 12 12 12 12 12 11 11 10 11 12 11 10 12 12 12 10 12 17 18 18 20 22 21 21 20 19 19 18 18 17 16 15 14 13
17 15 12 13 13 12 14 14 13 14 12 11 11 12 13 14 14 11 11 11 12 12 12 12 11 10 9 17 18 18 22 22 21 21 20 20 20 19 18 17 16 15 14
18 14 15 13 14 13 15 14 14 11 10 9 9 10 11 12 13 12 12 12 12 11 12 13 12 12 10 9 11 18 19 22 22 21 21 21 21 21 20 18 17 17 15
18 16 16 15 15 13 13 15 14 14 11 11 10 8 9 10 9 10 13 12 13 11 11 11 13 13 13 11 10 15 18 21 23 22 22 22 22 23 22 20 19 18 17
17 17 16 16 15 13 14 14 13 12 12 11 10 10 11 12 10 9 8 9 12 12 12 10 11 12 12 10 10 10 15 20 23 23 22 22 23 24 24 22 21 20 17
16 17 17 16 16 14 15 15 15 14 10 11 10 10 12 11 13 12 12 9 8 8 9 10 9 9 11 10 9 12 12 16 21 23 21 22 24 25 26 24 23 21 19
14 17 18 17 17 15 15 15 15 15 12 13 11 10 11 10 9 10 13 13 11 9 9 8 8 8 8 9 11 10 12 14 16 18 19 20 21 23 25 24 23 22 21
14 18 18 17 16 16 17 16 15 15 14 14 12 11 11 12 12 11 12 12 13 10 9 8 8 8 7 8 9 11 12 14 15 16 16 17 19 20 22 22 22 23 22
15 19 19 18 19 18 17 15 13 14 13 13 14 13 11 11 11 12 11 11 12 11 11 12 8 8 7 8 8 11 11 15 16 16 16 16 18 18 20 21 21 21 20
16 19 19 19 18 18 17 16 12 14 14 13 12 13 12 11 11 12 11 10 11 12 12 13 9 10 8 7 7 9 10 12 14 15 16 17 17 18 18 19 19 19 18
19 20 19 19 18 17 17 15 14 14 15 14 11 11 11 9 10 11 11 10 10 12 12 9 9 8 9 6 8 8 7 11 11 11 12 15 17 19 19 20 21 21 20
19 20 19 19 18 17 16 15 15 15 15 14 13 12 11 10 8 9 10 10 11 10 11 9 5 6 9 9 8 7 8 8 8 13 15 15 16 17 19 20 20 20 20
18 19 19 19 18 18 17 15 15 15 14 14 14 13 13 10 10 8 8 10 11 12 10 10 7 6 8 10 10 10 8 7 7 13 16 16 16 17 17 17 17 17 17
18 18 18 18 18 18 18 16 14 13 13 13 13 13 13 13 11 8 7 8 9 10 10 10 8 6 5 6 10 10 11 9 8 10 15 16 17 17 17 17 17 16 16
18 18 18 18 18 18 17 16 11 11 12 12 12 12 12 13 13 10 6 6 6 8 10 8 8 7 7 7 9 11 10 9 8 9 9 10 14 16 17 17 17 16 16
17 17 18 18 18 16 16 19 9 10 11 12 12 12 12 16 19 15 8 6 5 3 4 6 7 7 7 8 8 8 10 9 8 7 9 9 10 9 10 14 14 15 15
17 17 17 18 18 14 25 29 13 9 10 11 12 12 12 13 17 20 21 20 16 8 4 1 4 7 7 6 6 8 10 10 6 5 9 8 8 9 8 9 13 16 16
16 16 16 17 17 19 28 29 18 11 10 10 12 12 10 12 14 12 16 20 21 25 20 10 11 8 7 7 3 7 8 9 7 6 9 7 6 8 7 9 16 17 18
14 14 16 17 17 18 27 29 19 10 9 10 11 12 11 13 14 13 12 13 15 18 19 14 14 13 12 10 8 5 7 9 8 6 4 6 5 6 8 9 16 18 19
14 14 14 16 16 18 25 28 18 8 8 10 11 11 12 14 21 20 14 13 14 14 19 25 26 25 28 27 17 6 5 7 5 4 5 4 5 6 6 8 11 16 16
14 14 14 14 15 16 23 26 22 8 8 8 9 11 19 20 23 22 15 13 14 13 12 14 18 20 19 22 24 14 8 4 5 4 4 3 5 5 5 4 5 5 8
Wind_Direction
344 342 335 335 332 334 330 325 316 312 301 288 271 259 255 251 247 245 236 204 226 239 243 243 242 240 233 226 219 213 210 210 210 207 201 195 191 186 182 178 174 173 174
341 337 332 331 330 332 328 319 313 306 293 283 275 268 262 258 251 248 248 224 217 233 241 241 240 239 235 229 221 215 211 211 210 208 204 199 195 190 185 181 177 176 178
341 336 329 326 331 328 323 319 316 309 298 288 275 266 262 260 257 253 249 247 235 220 228 236 237 238 236 231 223 216 213 211 208 206 203 199 195 192 189 185 182 181 183
343 335 328 327 330 325 320 319 316 315 306 293 280 270 263 257 257 254 252 245 244 242 224 221 230 234 236 233 227 220 215 212 207 204 202 199 195 194 193 190 188 187 187
341 335 327 329 330 325 322 320 319 315 307 297 284 272 264 259 255 252 247 244 240 239 244 217 214 228 234 235 230 223 217 212 209 205 203 200 197 197 197 195 192 191 192
338 334 328 330 330 325 326 323 318 313 304 295 286 274 264 258 254 252 250 243 236 235 237 243 228 220 224 232 232 225 219 214 211 208 204 202 200 199 199 197 194 193 194
334 332 329 328 328 324 321 318 320 315 310 306 292 274 256 249 247 246 244 244 237 233 233 235 238 237 219 216 225 224 218 215 213 212 209 205 202 200 199 197 194 193 193
332 330 330 328 325 321 317 319 319 312 307 307 307 294 266 250 236 236 238 237 238 235 233 232 234 234 237 226 210 213 214 213 213 213 211 209 206 202 199 196 193 192 192
328 328 328 327 323 320 314 313 310 307 307 305 288 285 280 262 257 232 230 234 234 233 231 231 231 233 234 233 223 204 207 211 214 215 213 211 209 205 200 194 192 191 190
327 326 327 326 322 317 311 308 304 300 296 293 293 275 277 290 283 263 229 225 233 235 231 227 228 229 230 231 229 219 200 209 214 216 214 211 209 207 202 195 191 189 188
328 327 328 325 321 316 311 307 302 294 286 280 279 283 287 282 268 265 260 245 225 226 229 225 221 225 226 225 225 220 201 209 216 216 213 210 209 208 204 196 192 188 185
327 329 328 324 320 316 313 310 304 293 283 274 270 268 268 269 268 259 253 252 248 234 221 223 220 219 221 222 223 212 203 210 217 218 214 210 208 208 205 197 191 186 182
328 327 326 322 319 317 314 314 311 301 290 281 271 263 261 262 268 270 267 258 253 249 227 223 222 217 215 219 220 202 209 213 216 219 215 210 207 206 203 194 187 184 180
324 324 323 320 318 318 316 318 317 314 306 293 278 267 261 260 259 258 260 261 255 248 237 231 214 213 209 213 218 199 213 209 213 215 213 208 203 199 197 190 184 180 174
323 325 323 321 320 321 320 321 321 321 317 306 290 275 264 258 255 253 251 251 254 249 240 233 217 208 202 206 197 207 216 197 201 206 207 204 196 186 178 172 169 163 152
326 325 326 324 321 322 323 321 322 326 325 319 310 297 282 268 258 252 246 242 246 251 254 246 222 202 189 191 190 199 185 154 158 163 168 172 166 157 153 150 147 146 147
328 327 327 325 324 324 326 320 326 332 332 330 328 324 317 302 281 263 252 242 237 238 246 252 220 199 187 182 172 171 149 141 132 128 128 128 131 133 135 137 140 145 147
330 329 328 327 327 328 329 321 326 337 338 337 336 339 340 330 314 286 266 252 242 232 231 231 203 191 188 181 171 160 144 132 127 127 123 121 122 124 127 130 136 140 141
333 333 331 329 329 330 329 322 326 340 341 341 342 343 342 340 333 315 294 270 252 237 225 222 200 180 164 168 163 150 142 132 129 135 130 132 133 135 137 139 141 141 138
336 335 333 331 330 330 327 320 325 343 344 344 345 344 342 345 342 334 320 305 271 240 223 209 185 171 154 163 160 149 141 136 136 140 133 135 137 138 143 146 145 141 139
337 336 335 334 334 332 329 331 335 347 346 346 347 347 345 354 356 2 6 355 330 275 222 191 173 159 152 159 160 151 139 126 117 136 135 139 141 140 140 139 136 139 138
336 337 335 334 335 336 333 340 349 346 346 349 350 350 352 358 2 6 19 31 32 24 17 69 132 130 119 124 135 140 137 140 130 117 114 111 133 137 144 148 142 137 133
334 334 333 334 335 336 337 342 349 344 348 353 353 354 -0 5 12 8 17 28 32 36 39 47 58 52 56 34 90 149 160 150 119 130 126 100 92 91 85 105 124 127 125
329 330 332 335 336 339 340 342 347 348 354 358 359 359 10 19 23 24 25 33 37 35 38 44 52 50 48 35 25 45 95 93 82 42 74 110 94 80 75 78 94 107 113
327 329 331 335 338 341 343 347 357 352 359 3 5 17 30 34 33 33 31 35 37 33 36 47 50 49 46 44 37 44 93 124 107 54 28 96 114 93 71 60 72 90 101
329 330 331 336 342 344 347 355 4 354 1 6 13 28 40 41 38 39 35 35 38 33 34 38 42 42 42 40 40 36 27 73 99 87 29 80 114 116 100 66 52 59 83